Flag for Germany Weather past 2 weeks in Siegen, North Rhine-Westphalia, Germany

Now
57 °F

Passing clouds.


Feels Like: 57 °F
Forecast: 54 / 66 °F
Wind: 3 mph from North

Location: Hessen

Current Time: Aug 29, 2014 at 10:09:55 PM

Latest Report: Aug 29, 2014 at 8:50 PM


Visibility: 4 mi

Pressure: 30.04 "Hg

Humidity: 100%

Dew point: 57 °F

Location of SiegenLocation

Historic Weather in Siegen — Graph

°F

Siegen temperature yesterday

Maximum temperature yesterday: 66 °F (at 2:50 PM)
Minimum temperature yesterday: 54 °F (at 7:20 AM)
Average temperature yesterday: 61 °F

Past Weeks' High & Low Weather Summary

 TemperatureHumidityPressure
High66 °F (Aug 28, 2:50 PM)100% (Aug 15, 7:50 AM)30.09 "Hg (Aug 15, 7:50 AM)
Low45 °F (Aug 20, 7:50 AM)51% (Aug 18, 4:50 PM)29.65 "Hg (Aug 26, 6:50 AM)
Average55 °F82%29.96 "Hg
* Reported Aug 14 8:20 PM — Aug 29 8:50 PM, Siegen, Weather by CustomWeather, © 2014

Note: Actual official high and low records may vary slightly from our data, if they occured in-between our weather recording intervals... More about our weather records

Advertising

Siegen weather history for previous 24 hours

 ConditionsComfort  
Time TempWeatherWind HumidityBarometerVisibility
8:50 PM
Aug 29
57 °FPassing clouds.3 mph100%30.04 "Hg4 mi
8:20 PM57 °FScattered clouds.7 mph100%30.04 "HgN/A
7:50 PM59 °FPartly sunny.6 mph94%30.04 "HgN/A
7:20 PM59 °FSprinkles. Broken clouds.7 mph94%30.04 "HgN/A
6:50 PM59 °FBroken clouds.8 mph94%30.04 "HgN/A
6:20 PM59 °FBroken clouds.6 mph100%30.04 "HgN/A
5:50 PM61 °FBroken clouds.8 mph94%30.04 "HgN/A
5:20 PM63 °FBroken clouds.6 mph94%30.04 "HgN/A
4:50 PM59 °FSprinkles. Broken clouds.7 mph100%30.04 "Hg5 mi
4:20 PM59 °FSprinkles. Broken clouds.7 mph100%30.04 "Hg5 mi
3:50 PM64 °FSprinkles. Broken clouds.5 mph73%30.04 "HgN/A
3:20 PM64 °FBroken clouds.8 mph73%30.04 "HgN/A
2:50 PM66 °FPartly sunny.8 mph64%30.04 "HgN/A
2:20 PM64 °FScattered clouds.8 mph73%30.04 "HgN/A
1:50 PM66 °FScattered clouds.9 mph73%30.07 "HgN/A
1:20 PM64 °FPartly sunny.7 mph68%30.07 "HgN/A
12:50 PM63 °FPartly sunny.8 mph73%30.07 "HgN/A
12:20 PM61 °FScattered clouds.8 mph77%30.07 "HgN/A
11:50 AM61 °FPartly sunny.6 mph83%30.07 "HgN/A
11:20 AM59 °FPartly sunny.8 mph88%30.07 "HgN/A
10:50 AM59 °FPartly sunny.6 mph82%30.04 "HgN/A
10:20 AM57 °FPartly sunny.6 mph94%30.04 "HgN/A
9:50 AM57 °FBroken clouds.7 mph94%30.04 "HgN/A
9:20 AM57 °FBroken clouds.7 mph94%30.04 "HgN/A
8:50 AM55 °FBroken clouds.8 mph100%30.04 "HgN/A
8:20 AM55 °FPartly sunny.8 mph100%30.04 "Hg5 mi
7:50 AM55 °FFog.8 mph100%30.01 "Hg3 mi
Weather by CustomWeather, © 2014

See weather overviewHow to use our weather pages